Regional Weather Roundup
Issued by NWS

Home | Current Version | Previous Version | Text Only | Print | Product List | Glossary On
Versions: 1 2 3 4 5 6 7 8 9 10 11 12 13 14 15 16 17 18 19 20 21 22 23 24 25 26 27 28 29 30 31 32 33 34 35 36 37 38 39 40 41 42 43 44 45 46 47 48 49 50
000
ASUS44 KFWD 291215
RWRTX
NORTH TEXAS HOURLY WEATHER ROUNDUP
NATIONAL WEATHER SERVICE FORT WORTH TX
700 AM CDT FRI MAY 29 2015

NOTE: "FAIR" INDICATES FEW OR NO CLOUDS BELOW 12,000 FEET WITH NO
SIGNIFICANT WEATHER AND/OR OBSTRUCTIONS TO VISIBILITY.

TXZ118-119-291300-
DALLAS/FORT WORTH METROPLEX

CITY           SKY/WX    TMP DP  RH WIND       PRES   REMARKS
DFW AIRPORT    CLOUDY    66  66 100 CALM      29.84F
6HR MIN TEMP:  65; 6HR MAX TEMP:  66; 6HR PCP:  2.24;

DALLAS LOVE    CLOUDY    71  68  90 VRB6      29.83F
6HR MIN TEMP:  67; 6HR MAX TEMP:  71; 6HR PCP:  4.27;

FTW MEACHAM    CLOUDY    69  67  93 SW5       29.87F
6HR MIN TEMP:  66; 6HR MAX TEMP:  69; 6HR PCP:  0.76;

DAL-EXECUTIVE  CLOUDY    69  67  93 VRB5      29.85R
6HR MIN TEMP:  66; 6HR MAX TEMP:  69; 6HR PCP:  2.91;

FTW-ALLIANCE   CLOUDY    68  68 100 CALM      29.87S
6HR MIN TEMP:  65; 6HR MAX TEMP:  68; 6HR PCP:  0.96;

FTW-NAS-JRB    CLOUDY    69  68  96 CALM      29.88F
6HR MIN TEMP:  66; 6HR MAX TEMP:  69; 6HR PCP:  0.64;

FTW-SPINKS     CLOUDY    68  66  94 W7        29.90R FOG
ARLINGTON      CLOUDY    69  65  86 SW5       29.86F
6HR MIN TEMP:  67; 6HR MAX TEMP:  70; 6HR PCP:  1.94;

GRAND PRAIRIE  PTCLDY    68  68 100 CALM      29.85F
ADDISON        CLOUDY    70  68  94 NE5       29.85F
MESQUITE       CLEAR     72  70  94 E12       29.83F
LANCASTER      CLOUDY    68  66  93 SE6       29.83F
6HR MIN TEMP:  67; 6HR MAX TEMP:  71; 6HR PCP:  1.08;

$$

TXZ091>094-102>105-117-120-121-131>134-291300-
NORTH CENTRAL TEXAS

CITY           SKY/WX    TMP DP  RH WIND       PRES   REMARKS
SHRMAN/DENISON CLOUDY    67  67 100 NE7       29.88F
6HR MIN TEMP:  66; 6HR MAX TEMP:  67; 6HR PCP:  0.59;

GAINESVILLE    DRIZZLE   66  65  97 NE7       29.90F
6HR MIN TEMP:  65; 6HR MAX TEMP:  66; 6HR PCP:  0.75;

BOWIE          CLOUDY    64  64 100 N6        29.91R
6HR MIN TEMP:  62; 6HR MAX TEMP:  64; 6HR PCP:  0.52;

BRIDGEPORT     CLOUDY    66  66 100 NW3       29.91S
6HR MIN TEMP:  64; 6HR MAX TEMP:  66; 6HR PCP:  0.51;

DECATUR        CLOUDY    66  66 100 CALM      29.89S
6HR MIN TEMP:  64; 6HR MAX TEMP:  66; 6HR PCP:  0.68;

DENTON         CLOUDY    68  67  96 E5        29.86F
6HR MIN TEMP:  66; 6HR MAX TEMP:  68; 6HR PCP:  1.02;

MCKINNEY       CLOUDY    69  67  93 NE7       29.84F
6HR MIN TEMP:  66; 6HR MAX TEMP:  68; 6HR PCP:  2.60;

GREENVILLE     CLOUDY    72  70  94 E8        29.88F
ROCKWALL       CLOUDY    70  70  99 E9        29.83F
6HR MIN TEMP:  68; 6HR MAX TEMP:  71; 6HR PCP:  0.20;

TERRELL        CLOUDY    74  71  91 SE13      29.85F FOG
6HR MIN TEMP:  74; 6HR MAX TEMP:  77; 6HR PCP:  0.02;

WAXAHACHIE     CLOUDY    68  68 100 SE6       29.86S
6HR MIN TEMP:  67; 6HR MAX TEMP:  71; 6HR PCP:  0.43;

CLEBURNE       FOG       66  66 100 W9        29.92R VSB 1
GRANBURY       CLOUDY    67  65  94 W7        29.92R
6HR MIN TEMP:  66; 6HR MAX TEMP:  67; 6HR PCP:  0.43;

$$

TXZ083>090-098>101-113>116-127>130-139>142-154-155-291300-
WESTERN NORTH TEXAS

CITY           SKY/WX    TMP DP  RH WIND       PRES   REMARKS
WICHITA FALLS  CLOUDY    64  62  93 N3        29.94R
6HR MIN TEMP:  63; 6HR MAX TEMP:  66; 6HR PCP:  0.01;

WF-KICKAPOO    CLOUDY    65  63  93 CALM      29.95R
6HR MIN TEMP:  65; 6HR MAX TEMP:  69;

VERNON         MOCLDY    63  58  83 CALM      29.98R
6HR MIN TEMP:  63; 6HR MAX TEMP:  69;

ABILENE        PTCLDY    63  60  90 CALM      30.00R
6HR MIN TEMP:  62; 6HR MAX TEMP:  64; 6HR PCP:  0.01;

ABILENE-DYESS  PTCLDY    61  57  87 E5        29.98S
6HR MIN TEMP:  61; 6HR MAX TEMP:  64; 6HR PCP: TRACE;

BRECKENRIDGE   CLOUDY    65  64  98 W5        29.97R
6HR MIN TEMP:  64; 6HR MAX TEMP:  65;

GRAHAM         CLOUDY    64  64 100 W3        29.95R
6HR MIN TEMP:  63; 6HR MAX TEMP:  64;

MINERAL WELLS  LGT RAIN  65  64  97 W5        29.90R
6HR MIN TEMP:  64; 6HR MAX TEMP:  65; 6HR PCP:  0.38;

STEPHENVILLE   CLOUDY    64  62  93 W7        29.97R
6HR MIN TEMP:  63; 6HR MAX TEMP:  64; 6HR PCP:  0.41;

COMANCHE       CLOUDY    62  62 100 NW3       29.96F
6HR MIN TEMP:  62; 6HR MAX TEMP:  63;

BROWNWOOD      CLOUDY    63  63 100 W5        29.99R
COLEMAN        MOCLDY    61  61 100 NE6       29.99S
6HR MIN TEMP:  61; 6HR MAX TEMP:  63; 6HR PCP:  0.01;

BRADY          CLEAR     61  61 100 N5        29.95S
$$

TXZ143>147-156>162-174-175-291300-
CENTRAL TEXAS

CITY           SKY/WX    TMP DP  RH WIND       PRES   REMARKS
WACO           CLOUDY    65  64  97 W8        29.90F
6HR MIN TEMP:  65; 6HR MAX TEMP:  77; 6HR PCP:  0.61;

WACO-TSTC      MOCLDY    66  64  94 W6        29.90
WACO-MCGREGOR  CLOUDY    64  63  94 NW6       29.91F
6HR MIN TEMP:  64; 6HR MAX TEMP:  77;

HILLSBORO      CLOUDY    66  64  94 SW16      29.92R FOG
6HR MIN TEMP:  66; 6HR MAX TEMP:  76; 6HR PCP:  1.20;

CORSICANA      CLOUDY    70  67  90 SE12      29.86F
6HR MIN TEMP:  70; 6HR MAX TEMP:  77; 6HR PCP:  0.14;

MEXIA          CLOUDY    66  65  97 SE15G23   29.85F
6HR MIN TEMP:  66; 6HR MAX TEMP:  76; 6HR PCP:  0.02;

HEARNE         CLOUDY    65  65  97 SE9       29.90S
6HR MIN TEMP:  65; 6HR MAX TEMP:  76; 6HR PCP:  1.23;

CAMERON        CLOUDY    66  65  97 E7        29.85F
6HR MIN TEMP:  65; 6HR MAX TEMP:  77; 6HR PCP:  0.31;

TEMPLE         CLOUDY    64  61  88 N3        29.87F
6HR MIN TEMP:  64; 6HR MAX TEMP:  75;

KILLEEN        CLOUDY    63  63  98 NW3       29.88S
6HR MIN TEMP:  63; 6HR MAX TEMP:  64; 6HR PCP:  0.37;

KILLEEN-SKYLRK CLOUDY    64  59  82 N5        29.89S
6HR MIN TEMP:  64; 6HR MAX TEMP:  70;

FORT HOOD        N/A     64  63  97 N6        29.89F
6HR MIN TEMP:  64; 6HR MAX TEMP:  64; 6HR PCP:  0.70;

GATESVILLE     CLOUDY    64  64 100 N5        29.91F
HAMILTON       CLOUDY    64  64 100 W6        29.95R
LAMPASAS       CLOUDY    63  62  97 W3        29.92R
6HR MIN TEMP:  62; 6HR MAX TEMP:  63; 6HR PCP:  0.42;

$$

TXZ095>097-106>112-122>126-135>138-148>153-164>167-291300-
EAST TEXAS

CITY           SKY/WX    TMP DP  RH WIND       PRES   REMARKS
PARIS          CLOUDY    70  64  83 E7        29.94F
6HR MIN TEMP:  70; 6HR MAX TEMP:  73;

SULPHUR SPRNGS CLOUDY    73  72  94 E9        29.94F
MOUNT PLEASANT CLOUDY    70  69  97 E6        29.96F
6HR MIN TEMP:  69; 6HR MAX TEMP:  73;

GILMER         CLOUDY    72  70  95 SE6       29.95F
6HR MIN TEMP:  71; 6HR MAX TEMP:  75;

TYLER          CLOUDY    74  71  91 SE10      29.94S
6HR MIN TEMP:  74; 6HR MAX TEMP:  77;

LONGVIEW       CLOUDY    73  70  90 S8        29.96F
6HR MIN TEMP:  72; 6HR MAX TEMP:  75;

MARSHALL       CLOUDY    73  71  92 CALM      30.01R
6HR MIN TEMP:  73; 6HR MAX TEMP:  73;

ATHENS         TSTM      70  68  94 SE10G25   29.89F
PALESTINE      RAIN      71  69  95 SE3       29.92F
JACKSONVILLE   CLOUDY    74  72  94 S8        29.97F
NACOGDOCHES    CLOUDY    73  72  94 SE8       29.97F
6HR MIN TEMP:  73; 6HR MAX TEMP:  73;

LUFKIN         CLOUDY    77  72  84 SE8       29.97S
6HR MIN TEMP:  76; 6HR MAX TEMP:  78;

$$

SUPPLEMENTAL OBSERVATIONS (CENTRAL)

CITY           SKY/WX    TMP DP  RH WIND       PRES   REMARKS
LAKE TEXOMA      N/A     66  64  94 E9          N/A
CADDO GRASSLND   N/A     68  66  94 E6          N/A
PAT MAYSE LAKE   N/A     68  66  94 NE5         N/A
GREENVILLE       N/A     73  70  88 E6          N/A
CEDAR HILL       N/A     68  66  94 SW3         N/A
ATHENS           N/A     72  66  83 S14G22      N/A
LAKE LIMESTONE   N/A     68  64  88 S10         N/A
MCGREGOR         N/A     64  63  94 N2G12       N/A
TEMPLE           N/A     64  63  94 VRB1G10     N/A
$$

SUPPLEMENTAL OBSERVATIONS (WEST)

CITY           SKY/WX    TMP DP  RH WIND       PRES   REMARKS
MILLERS CREEK    N/A     63  59  88 S6          N/A



USA.gov is the U.S. government's official web portal to all federal, state and local government web resources and services.